Regional Weather Roundup
Issued by NWS Boston, MA

Home | Current Version | Previous Version | Text Only | Print | Product List | Glossary On
Versions: 1 2 3 4 5 6 7 8 9 10 11 12 13 14 15 16 17 18 19 20 21 22 23 24 25 26 27
000
ASUS41 KBOX 191510
RWRBOX

REGIONAL WEATHER ROUNDUP
NATIONAL WEATHER SERVICE TAUNTON MA
1000 AM EST SUN FEB 19 2017

NOTE:  "FAIR" INDICATES FEW OR NO CLOUDS BELOW 12,000 FEET WITH NO
SIGNIFICANT WEATHER AND/OR OBSTRUCTIONS TO VISIBILITY.

MAZALL-191600-
EASTERN MASSACHUSETTS

CITY           SKY/WX    TMP DP  RH WIND       PRES   REMARKS
BOSTON         CLOUDY    51  36  56 SW12      29.71R
BEVERLY        CLOUDY    46  35  65 SW7       29.69R
LAWRENCE       CLOUDY    47  36  65 SW8       29.70R
BEDFORD        PTSUNNY   48  32  53 SW6       29.69R
BLUE HILL      NOT AVBL
NORWOOD        PTSUNNY   53  35  50 SW9G18    29.71R
MARSHFIELD     MOSUNNY   59  36  41 W8G16     29.70R
PLYMOUTH       SUNNY     53  34  48 W7        29.71S
TAUNTON        SUNNY     56  34  43 W7        29.71R
NEW BEDFORD    MOSUNNY   57  35  43 W10       29.72R
$$

MAZALL-191600-
CAPE COD AND THE ISLANDS

CITY           SKY/WX    TMP DP  RH WIND       PRES   REMARKS
FALMOUTH       SUNNY     55  36  47 MISG      29.72S
HYANNIS        SUNNY     59  36  42 W12       29.70R
CHATHAM        SUNNY     59  37  44 VRB3      29.72R
PROVINCETOWN   SUNNY     52  38  58 W12       29.71R
NANTUCKET      SUNNY     55  37  50 W15       29.73R
MARTHAS VNYRD  MOSUNNY   58  36  43 W12       29.73R
$$

MAZALL-191600-
CENTRAL AND WESTERN MASSACHUSETTS

CITY           SKY/WX    TMP DP  RH WIND       PRES   REMARKS
WORCESTER      CLOUDY    48  32  53 W10       29.71R
FITCHBURG      PTSUNNY   51  34  52 W8        29.70R
ORANGE         PTSUNNY   48  35  60 NW3       29.72R
SPRINGFIELD    CLOUDY    45  34  66 SW13      29.73R
WESTFIELD      PTSUNNY   46  35  65 S7        29.74R
NORTH ADAMS    CLOUDY    47  34  60 W3        29.75R
PITTSFIELD     MOSUNNY   45  33  63 W17G23    29.73R
$$

RIZALL-191600-
RHODE ISLAND

CITY           SKY/WX    TMP DP  RH WIND       PRES   REMARKS
PROVIDENCE     PTSUNNY   52  35  52 W9        29.74R
NEWPORT        MOSUNNY   55  37  50 NW9       29.73R
BLOCK ISLAND   SUNNY     53  37  54 W15       29.78R
SMITHFIELD     PTSUNNY   52  34  50 W10G17    29.73R
WESTERLY       CLOUDY    59  32  36 W8        29.77R
$$

CTZALL-191600-
CONNECTICUT

CITY           SKY/WX    TMP DP  RH WIND       PRES   REMARKS
BRADLEY INTL   CLOUDY    50  34  54 W6        29.76R
HARTFORD       CLOUDY    50  37  61 VRB3      29.77R
BRIDGEPORT     PTSUNNY   50  37  61 W6        29.79R
DANBURY        PTSUNNY   52  34  50 W3        29.80R
GROTON         MOSUNNY   57  35  43 W10       29.77R
NEW HAVEN      PTSUNNY   50  36  58 CALM      29.79R
CHESTER        FAIR      55  36  47 W5        29.78R
MERIDEN        CLOUDY    49  33  54 CALM      29.78R
WILLIMANTIC    CLOUDY    54  35  48 W7        29.76S
OXFORD         PTSUNNY   52  34  50 W5        29.80R
$$

MEZ002-015-021-024-NHZ003-005-008-011-012-014-VTZ005-008-191600-
NORTHERN NEW ENGLAND

CITY           SKY/WX    TMP DP  RH WIND       PRES   REMARKS
PORTLAND ME    MOSUNNY   44  34  67 SW5       29.63S
BANGOR ME      MOSUNNY   49  33  54 W7        29.58R
CONCORD NH     PTSUNNY   47  34  60 SW3       29.67R
MANCHESTER NH  PTSUNNY   44  33  65 S5        29.67R
NASHUA NH      PTSUNNY   48  36  63 VRB3      29.69R
PORTSMOUTH NH  PTSUNNY   48  34  58 SW6       29.65S
JAFFREY NH     CLOUDY    46  34  62 VRB5      29.69R
KEENE NH       CLOUDY    33  31  92 CALM      29.70S
BURLINGTON VT  MOSUNNY   46  35  65 VRB3      29.67R
MT. WASHINGTON FOG       25  25 100 W61G70      N/A  VSB 0   WCI   3
$$

NYZ052-076-191600-
EASTERN NEW YORK

CITY           SKY/WX    TMP DP  RH WIND       PRES   REMARKS
ALBANY         PTSUNNY   48  34  58 W10       29.78R
NEW YORK CITY  CLOUDY    60  36  40 W8        29.81R
$$

ANZALL-191600-
MARINE OBSERVATIONS

STATION/POSITION TIME  TEMP    WIND        PRES    VSBY  WAVE
                       AIR SEA DIR/SP/G                  HT/PER
                 (UTC) (F)     (DEG/KT/KT) (MB)    (MI)  (FT/S)
BOSTON BUOY      1450   45 42  260/  8/ 10 1004.9R         1
BUZZARDS BAY     1400   45     260/ 17/ 17 1006.5R
NANTUCKET SOUND  1350   42 38  240/  4/  6 1005.9          1
MASS BAY-STELLWA 1404   44 40  250/ 12/ 14 1003.9R         2/ 3
ISLE OF SHOALS   1400   47     250/ 16/ 16 1004.0R
S OF BLOCK IS    1455      43                N/A           4/ 6
$$

......................KEY.........................
  SKY/WX - SKY CONDITION/PRESENT WEATHER
  TMP    - TEMPERATURE IN FAHRENHEIT
  DWPT   - DEWPOINT IN FAHRENHEIT
  RH     - RELATIVE HUMIDITY IN PERCENT
  WIND   - DIRECTION AND SPEED IN MPH
  PRES   - MEAN SEA LEVEL PRESSURE IN INCHES OF HG
  WCI    - WIND CHILL INDEX
  VSB    - VISIBILITY IN MILES
  HX     - HEAT INDEX
  TC     - TEMPERATURE IN CELSIUS
  VRB    - VARIABLE WIND DIRECTION
  N/A    - NOT AVAILABLE




USA.gov is the U.S. government's official web portal to all federal, state and local government web resources and services.